Find ICEYE-X64

NORAD ID: 67373 Int'l Des: 2026-004 Owner: PUOL Country: FI operational
LEOCIRCULARRETROGRADESSO

当前视图

正在加载3D地球...

About ICEYE-X64

ICEYE-X64 (NORAD 67373) is a satellite launched Jan 11, 2026 by PUOL of FI. It operates in LEO, CIRCULAR, RETROGRADE, SSO orbit with a mass of 120.00 kg.

即将过境

Passes for default location (London). Set your location on the main map for personalized predictions.

高度历史

Loading altitude history...

两行轨道根数

1 67373U 26004L 26194.88809183 .00000675 00000-0 79438-4 0 9998
2 67373 97.8026 193.0310 0007311 57.5256 302.6666 14.87985299 27267
Epoch: Jul 13, 2026 • Age: 7 hours

当前状态

高度 607.8 km
远地点 / 近地点 N/A
速度 7.56 km/s
星下点 52.82°N, 169.21°W
发射日期 Jan 11, 2026
运行时间 0.5 years
类型 other

技术详情

分类 Payload
质量 120.00 kg
干质量 120.00 kg
总质量 120.00 kg
长度 0.80 m
直径 0.60 m
跨度 1.50 m
形状 Box + pan
制造商 ICEYE
平台类型 ICEYE
阶段状态 In Orbit
所有者/国家 PUOL/FI

Most Searched